DECAYED

STARLINK-1961, 47562 (Decayed)

Orbit data source: Space-Track

STARLINK-1961, 47562 was a payload satellite owned by SpaceX/Seattle (US) in LEO that was launched on Thu, 04 Feb 2021 UTC via an FALCON 9 launch vehicle from the Air Force Eastern Test Range (AFETR). Payload-class satellites include a variety of spacecraft equipped with specific instruments for various scientific and technological missions. These include communications satellites like Starlink; space stations such as the ISS; scientific satellites like the Hubble; Earth observation satellites from companies like Planet Labs, Umbra, and HawkEye 360; GPS; miniature CubeSats for education and research; and military/defense satellites.

Not visible in the next 10 days
Identifier
47562, 2021-009Q
Orbit
Decayed
Country
Flag of USUS
Related business
Manufacturer
SpaceX/Seattle
Mission
Decayed Commercial Communications
Bus & Motor
STARLINK, Unknown motor
Mass
260 kg wet, ~248 kg dry
Launch date (UTC)
2021-02-04 (5 years ago)
Launch vehicle
FALCON 9
Launch site
Air Force Eastern Test Range (AFETR)
Object type
Payload
Rocket body
Debris
Shape & HBR
Box + 1 Pan, 10.1 m
Radar Cross Section
13.562 m², Large (>1 m²)

Expand to show TLE details & history
Last TLE update: 1 year ago

TLE from 1 year ago
0 STARLINK-1961
1 47562U 21009Q   25043.52230726  .12159569  12300-4  76125-3 0  9999
2 47562  53.0237 286.6929 0006219 204.8338 223.2737 16.41161504223231
Epoch: 2025-02-12T12:32Z
TLE epoch observation values (Epoch: 2025-02-12T12:32:07.347Z)
Latitude
47.9711°
Longitude
12.00429°
Altitude
170.978 km
Speed
7.808 km/s
True Right ascension
22h 51m 23s
True Declination
47° 47' 05"
Sunlit
Object was in daylight at epoch
Visualization orbit readout
Latitude
Unknown
Longitude
Unknown
Altitude
Unknown
Speed
Unknown
Apparent Right ascension
Unknown
Apparent Declination
Unknown
Sunlit
N/A
Visualization observer readout
Local Sidereal Time
21:29:00
Azimuth
Unknown
Elevation
Unknown
Doppler factor
Unknown
Orbital elements
Apogee altitude
167.074 km
Perigee altitude
158.938 km
Semi-major axis
6,541.143 km
Eccentricity
0.00062
Inclination
53.0237°
RAAN
286.6929°
Arg. of periapsis
204.8338°
True anomaly
223.22488°
Mean anomaly
223.2737°
Eccentric anomaly
223.24929°
Mean motion
4.10263 °/min
Orbital period
87.75 mins
BSTAR
0.00076125
Loading maneuver chart data...
Computing Atmospheric mass density...

Documentation

Showing up to 5 results
|